Regional Weather Roundup
Issued by NWS

Home | Current Version | Previous Version | Text Only | Print | Product List | Glossary On
Versions: 1 2 3 4 5 6 7 8 9 10 11 12 13 14 15 16 17 18 19 20 21 22 23 24 25 26 27 28 29 30 31 32 33 34 35 36 37 38 39 40 41 42 43 44 45 46 47 48 49 50
000
ASUS43 KBIS 231202
RWRND

NORTH DAKOTA REGIONAL WEATHER ROUNDUP
NATIONAL WEATHER SERVICE BISMARCK ND
700 AM CDT TUE MAY 23 2017

NOTE: "FAIR" INDICATES FEW OR NO CLOUDS BELOW 12,000 FEET WITH NO
SIGNIFICANT WEATHER AND/OR OBSTRUCTIONS TO VISIBILITY.


NDZ001>003-009>011-017-231300-
NORTHWEST NORTH DAKOTA

CITY           SKY/WX    TMP DP  RH WIND       PRES   REMARKS
WILLISTON      FAIR      37  33  85 CALM      30.17S
6HR MIN TEMP:  34; 6HR MAX TEMP:  50;

MINOT          FAIR      44  37  76 NW8       30.14R
MINOT AFB      CLEAR     42  36  78 NW9       30.13R
$$

NDZ018>021-031>035-040>046-231300-
SOUTHWEST NORTH DAKOTA

CITY           SKY/WX    TMP DP  RH WIND       PRES   REMARKS
BISMARCK       CLOUDY    53  37  54 N14G24    30.07R
6HR MIN TEMP:  51; 6HR MAX TEMP:  53;

DICKINSON      FAIR      37  33  85 W7        30.13R
GARRISON         N/A     40  35  83 NW13      30.12R
6HR MIN TEMP:  39; 6HR MAX TEMP:  47;

HETTINGER ARPT CLEAR     38  33  82 NW5       30.14S
$$

NDZ004>008-012>016-024-026-027-054-231300-
NORTHEAST NORTH DAKOTA

CITY           SKY/WX    TMP DP  RH WIND       PRES   REMARKS
GRAND FORKS    CLOUDY    50  45  83 N17G25    29.97R
GRND FRKS AFB  CLOUDY    47  45  93 NE16G24   29.98R
DEVILS LAKE    CLOUDY    45  41  86 N18G24    30.05R
$$

NDZ022-023-025-028>030-036>039-047>053-231300-
SOUTHEAST NORTH DAKOTA

CITY           SKY/WX    TMP DP  RH WIND       PRES   REMARKS
FARGO          CLOUDY    48  46  93 N18       29.91R
6HR MIN TEMP:  47; 6HR MAX TEMP:  49; 6HR PCP:  0.02;

JAMESTOWN      LGT RAIN  46  43  89 N15       29.98S
$$





USA.gov is the U.S. government's official web portal to all federal, state and local government web resources and services.